Location: Newark
(52.0572°N, 20.8422°E)
Time: 10:50:19
(UTC+00:00)

Envisat - Visible Passes

Search period start: 18 October 2019 00:00
Search period end: 28 October 2019 00:00
Orbit: 764 x 766 km, 98.1° (Epoch: 18 October)

Date Brightness Start Highest point End Pass type
(mag) Time Alt. Az. Time Alt. Az. Time Alt. Az.
18 Oct 6.3 04:09:18 10° NE 04:11:56 14° E 04:14:33 10° ESE visible
18 Oct 4.2 17:07:10 10° S 17:12:02 45° W 17:16:55 10° NNW visible
19 Oct 3.1 16:30:04 10° SSE 16:35:09 87° WSW 16:40:17 10° NNW visible
19 Oct 6.0 18:12:08 10° WSW 18:14:58 15° W 18:17:47 10° NW visible
20 Oct 5.1 17:33:22 10° SSW 17:37:44 28° W 17:42:07 10° NNW visible
21 Oct 6.6 03:58:58 10° ENE 04:00:29 11° E 04:02:01 10° E visible
21 Oct 3.8 16:55:44 10° S 17:00:43 55° W 17:05:44 10° NNW visible
22 Oct 3.0 16:18:49 10° SSE 16:23:53 79° ENE 16:29:00 10° NNW visible
22 Oct 5.8 18:00:06 10° SW 18:03:32 18° W 18:06:59 10° NW visible
23 Oct 6.0 04:22:53 10° NE 04:26:23 18° E 04:29:54 10° SE visible
23 Oct 4.7 17:21:46 10° SSW 17:26:22 34° W 17:31:01 10° NNW visible
24 Oct 3.4 16:44:22 10° S 16:49:24 67° WSW 16:54:30 10° NNW visible
24 Oct 6.2 18:28:08 10° W 18:29:27 11° W 18:30:45 10° WNW visible
25 Oct 3.0 16:07:37 10° SSE 16:12:38 65° ENE 16:17:41 10° N visible
25 Oct 5.5 17:48:14 10° SW 17:52:08 22° W 17:56:03 10° NW visible
26 Oct 6.2 04:12:03 10° NE 04:14:59 15° E 04:17:53 10° ESE visible
26 Oct 4.3 17:10:14 10° SSW 17:15:02 41° W 17:19:52 10° NNW visible
27 Oct 3.1 16:33:02 10° SSE 16:38:07 81° WSW 16:43:15 10° NNW visible
27 Oct 6.1 18:15:29 10° WSW 18:17:59 14° W 18:20:31 10° NW visible
